Weather in Kilmez

Russia / Udmurt Republic     57°00′35″N   51°20′00″E
temp.,
°C
wind,
m/s
gust,
m/s
humid.,
%
clouds,
%
prec.,
mm/h
press.,
hPa
HPBL,
m
22 october, fri
fri2201:00+7wsw41398100 0.0 996548
04:00+7sw31199100 0.0 997362
07:00+7ssw41199100 0.1 996396
10:00+8ssw51595100 0.2 995683
13:00+10sw61384100 0.0 995924
16:00+10sw61384100 0.0 995884
19:00+10wsw51285100 0.1 996973
22:00+9wsw6148623 0.1 998830
23 october, sat
sat2301:00+10wsw71476100 0.1 9991242
04:00+7wsw513835 0.1 1002789
07:00+6sw5138986 0.0 1003693
10:00+7sw5118437 0.0 1004890
13:00+8wsw51172100 0.1 10061348
16:00+8wsw497563 0.1 1007803
19:00+5ssw298824 0.0 1008232
22:00+4ssw29885 0.0 1009222
24 october, sun
sun2401:00+3ssw2690100 0.0 1008126
04:00+4s31185100 0.0 1006326
07:00+4ssw399667 0.1 1005342
10:00+5wsw488799 0.4 1005721
13:00+5wsw5980100 0.1 1007953
16:00+5wsw497370 0.1 1008901
19:00+4w3984100 0.1 1010717
22:00+4wsw3884100 0.1 1011557
25 october, mon
mon2501:00+3wsw3688100 0.1 1012410
04:00+2wsw2595100 0.1 1013285
07:00+2wsw2395100 0.0 1012148
10:00+3w3695100 0.1 1013450
13:00+1nnw499698 0.6 1014522
16:00+1nnw597994 0.9 10161109
19:00−1nnw511825 0.0 1019693
22:00−2nw310825 0.0 1021556
26 october, tue
tue2601:00−2nw38855 0.0 1022426
04:00−3wnw27895 0.0 1023319
07:00−3w259229 0.0 1023181
10:00−1wsw35746 0.0 1023394
13:00+2sw365584 0.0 1021804
16:00+2sw476170 0.0 1020784
19:000ssw3107484 0.0 1019380
22:000sw3975100 0.0 1018350